Location: Brabourne
(51.1333°N, 1.0000°E)
Time: 21:36:54
(UTC+00:00)

CZ-2D R/B - Pass Details

Date: 20 June 2021
Orbit: 791 x 845 km, 98.7° (Epoch: 02 August)

Event Time Altitude Azimuth Distance (km) Brightness Sun altitude
Rises 01:31:17 0° 16° (NNE) 3,308 7.3 -12.6°
Reaches altitude 10° 01:33:39 10° 19° (NNE) 2,372 6.1 -12.5°
Maximum altitude 01:38:52 69° 103° (ESE) 848 2.3 -12.2°
Enters shadow 01:43:16 15° 186° (S) 2,051 3.6 -11.9°
